Location: Haliburton Scout Reserve
(45.0900°N, 78.3200°W)
Time: 11:55:33
(UTC-04:00)

Cosmos 1315 - Visible Passes

Search period start: 01 August 2014 00:00
Search period end: 11 August 2014 00:00
Orbit: 415 x 422 km, 81.1° (Epoch: 31 July)

Date Brightness Start Highest point End Pass type
(mag) Time Alt. Az. Time Alt. Az. Time Alt. Az.
01 Aug 3.0 21:50:01 10° N 21:53:13 53° ENE 21:55:20 19° SSE visible
02 Aug 4.9 22:38:55 10° NW 22:41:33 23° W 22:43:42 13° SW visible
03 Aug 2.9 21:53:06 10° NNW 21:56:21 76° W 21:59:02 14° S visible
04 Aug 3.7 21:07:57 10° N 21:10:56 32° ENE 21:13:53 10° SE visible
04 Aug 5.7 22:42:53 10° WNW 22:44:27 13° W 22:46:01 10° WSW visible
05 Aug 4.2 21:56:16 10° NNW 21:59:18 37° W 22:02:19 10° SSW visible
06 Aug 2.8 21:10:41 10° N 21:13:56 62° ENE 21:17:08 10° SSE visible
07 Aug 5.3 21:59:35 10° NW 22:02:04 20° W 22:04:32 10° SW visible
08 Aug 3.2 21:13:30 10° NNW 21:16:44 65° W 21:19:57 10° S visible
09 Aug 5.9 22:03:29 10° WNW 22:04:38 12° W 22:05:47 10° WSW visible
10 Aug 4.6 21:16:23 10° NNW 21:19:21 32° W 21:22:18 10° SSW visible
